1332028831802,48.4795
1332028891802,48.5927
1332028951802,48.5265
1332029011802,48.3951
1332029071802,48.4719
1332029131802,48.6166
1332029191802,48.4885
1332029251802,48.5190
1332029311802,48.5121
1332029371802,48.6405
1332029431802,48.5040
1332029491802,48.4994
1332029551802,48.4687
1332029611802,48.3251
1332029671802,48.4279
1332029731802,48.5460
1332029791802,48.5175
1332029851802,48.4942
1332029911802,48.3493
1332029971802,48.4086
1332030031802,48.3790
1332030091802,48.4628
1332030151802,48.3616
1332030211802,48.6335
1332030271802,48.5799
1332030331802,48.5381
1332030391802,48.3630
1332030451802,48.6203
1332030511802,48.3992
1332030571802,48.3783
1332030631802,48.4176
1332030691802,48.3624
1332030751802,48.3847
1332030811802,48.2316
1332030871802,48.2609
1332030931802,48.2511
1332030991802,48.2019
1332031051802,48.2524
1332031111802,48.2124
1332031171802,48.3429
1332031231802,48.3359
1332031291802,48.2541
1332031351802,48.3139
1332031411802,48.2937
1332031471802,48.1284
1332031531802,48.2943
1332031591802,48.2646
1332031651802,48.2231
1332031711802,48.1562
1332031771802,48.2027
1332031831802,48.2674
1332031891802,48.1913
1332031951802,48.0754
1332032011802,48.1536
1332032071802,48.1650
1332032131802,48.0740
1332032191802,48.0814
1332032251802,48.1595
1332032311802,48.2559
1332032371802,48.0623
1332032431814,48.0363
1332032491814,48.1195
1332032551814,48.0603
1332032611814,48.0430
1332032671814,48.0977
1332032731814,48.0767
1332032791814,48.1204
1332032851814,48.2236
1332032911814,48.0814
1332032971814,48.1629
1332033031814,47.9470
1332033091814,48.0417
1332033151814,48.0137
1332033211814,48.1670
1332033271814,48.1078
1332033331814,48.0276
1332033391814,48.2319
1332033451814,48.0567
1332033511814,48.0933
1332033571814,48.1383
1332033631814,48.0448
1332033691814,48.1368
1332033751814,48.1311
1332033811814,48.2498
1332033871814,48.3407
1332033931814,48.1160
1332033991814,47.9960
1332034051814,48.1280
1332034111814,48.1102
1332034171814,48.1689
1332034231814,48.1500
1332034291814,48.2475
1332034351814,48.1921
1332034411814,48.1714
1332034471814,48.1117
1332034531814,48.1653
1332034591814,48.2280
1332034651814,48.1237
1332034711814,48.0976
1332034771814,48.1588
1332034831814,48.2520
1332034891814,48.2024
1332034951814,48.2883
1332035011814,48.3694
1332035071814,48.2850
1332035131814,48.1080
1332035191814,48.3018
1332035251814,48.2577
1332035311814,48.2495
1332035371814,48.2308
1332035431814,48.2660
1332035491814,48.3407
1332035551814,48.1789
1332035611814,48.2753
1332035671814,48.3509
1332035731814,48.4021
1332035791814,48.3516
1332035851814,48.1477
1332035911814,48.2649
1332035971814,48.3584
1332036031826,48.2764
1332036091826,48.2009
1332036151826,48.1673
1332036211826,48.3454
1332036271826,48.1705
1332036331826,48.3449
1332036391826,48.2501
1332036451826,48.2242
1332036511826,48.2309
1332036571826,48.2367
1332036631826,48.3111
1332036691826,48.2597
1332036751826,48.3260
1332036811826,48.2919
1332036871826,48.2903
1332036931826,48.2796
1332036991826,48.4082
1332037051826,48.2302
1332037111826,48.4039
1332037171826,48.4923
1332037231826,48.3905
1332037291826,48.3947
1332037351826,48.3788
1332037411826,48.3368
1332037471826,48.2850
1332037531826,48.4641
1332037591826,48.5251
1332037651826,48.4218
1332037711826,48.5075
1332037771826,48.5117
1332037831826,48.5662
1332037891826,48.5321
1332037951826,48.5910
1332038011826,48.5057
1332038071826,48.3654
1332038131826,48.5672
1332038191826,48.4470
1332038251826,48.3744
1332038311826,48.5374
1332038371826,48.4832
1332038431826,48.4183
1332038491826,48.5600
1332038551826,48.5529
1332038611826,48.5837
1332038671826,48.4642
1332038731826,48.5791
1332038791826,48.6726
1332038851826,48.6465
1332038911826,48.6502
1332038971826,48.4955
1332039031826,48.5583
1332039091826,48.6169
1332039151826,48.5744
1332039211826,48.6212
1332039271826,48.4108
1332039331826,48.3976
1332039391826,48.5839
1332039451826,48.4717
1332039511826,48.7082
1332039571826,48.5826
1332039631838,48.5802
1332039691838,48.6264
1332039751838,48.4261
1332039811838,48.3984
1332039871838,48.4090
1332039931838,48.4339
1332039991838,48.4585
1332040051838,48.4263
1332040111838,48.4177
1332040171838,48.4199
1332040231838,48.4109
1332040291838,48.5728
1332040351838,48.5205
1332040411838,48.4291
1332040471838,48.5308
1332040531838,48.3649
1332040591838,48.4723
1332040651838,48.5618
1332040711838,48.5047
1332040771838,48.5228
1332040831838,48.3776
1332040891838,48.5049
1332040951838,48.3282
1332041011838,48.5881
1332041071838,48.5703
1332041131838,48.3966
1332041191838,48.4915
1332041251838,48.2947
1332041311838,48.4306
1332041371838,48.4868
1332041431838,48.3197
1332041491838,48.4133
1332041551838,48.4221
1332041611838,48.4233
1332041671838,48.4221
1332041731838,48.4340
1332041791838,48.4593
1332041851838,48.3818
1332041911838,48.5146
1332041971838,48.4192
1332042031838,48.5431
1332042091838,48.5282
1332042151838,48.3299
1332042211838,48.4324
1332042271838,48.4549
1332042331838,48.5812
1332042391838,48.5778
1332042451838,48.5874
1332042511838,48.5213
1332042571838,48.7220
1332042631838,48.5231
1332042691838,48.5606
1332042751838,48.6083
1332042811838,48.5048
1332042871838,48.6115
1332042931838,48.6971
1332042991838,48.7237
1332043051838,48.6678
1332043111838,48.5914
1332043171838,48.6301
1332043231850,48.6246
1332043291850,48.5661
1332043351850,48.5832
1332043411850,48.5970
1332043471850,48.7481
1332043531850,48.6761
1332043591850,48.7256
1332043651850,48.7764
1332043711850,48.8083
1332043771850,48.7341
1332043831850,48.7295
1332043891850,48.8168
1332043951850,48.6156
1332044011850,48.8102
1332044071850,48.8314
1332044131850,48.8445
1332044191850,48.7706
1332044251850,48.7421
1332044311850,48.5749
1332044371850,48.6643
1332044431850,48.8623
1332044491850,48.6890
1332044551850,48.6646
1332044611850,48.6043
1332044671850,48.7140
1332044731850,48.5419
1332044791850,48.8051
1332044851850,48.7240
1332044911850,48.7097
1332044971850,48.6940
1332045031850,48.6824
1332045091850,48.7226
1332045151850,48.7222
1332045211850,48.7696
1332045271850,48.7536
1332045331850,48.5976
1332045391850,48.6792
1332045451850,48.7931
1332045511850,48.6831
1332045571850,48.6923
1332045631850,48.6769
1332045691850,48.7587
1332045751850,48.7086
1332045811850,48.8389
1332045871850,48.6956
1332045931850,48.6046
1332045991850,48.7181
1332046051850,48.7516
1332046111850,48.7137
1332046171850,48.8002
1332046231850,48.7941
1332046291850,48.7202
1332046351850,48.7883
1332046411850,48.9758
1332046471850,48.7296
1332046531850,48.9745
1332046591850,48.8505
1332046651850,48.8918
1332046711850,48.9772
1332046771850,49.0321
1332046831862,49.0516
1332046891862,48.9699
1332046951862,49.0776
1332047011862,49.0227
1332047071862,48.9852
1332047131862,48.9292
1332047191862,49.1292
1332047251862,49.0714
1332047311862,49.1312
1332047371862,48.9816
1332047431862,49.0618
1332047491862,49.0047
1332047551862,49.1772
1332047611862,49.0828
1332047671862,49.0373
1332047731862,49.1508
1332047791862,48.9861
1332047851862,48.9631
1332047911862,49.0398
1332047971862,49.0186
1332048031862,49.0466
1332048091862,48.9772
1332048151862,49.0507
1332048211862,48.9977
1332048271862,48.9944
1332048331862,48.8812
1332048391862,48.9427
1332048451862,49.1819
1332048511862,48.8767
1332048571862,48.9244
1332048631862,49.0181
1332048691862,48.9756
1332048751862,48.8810
1332048811862,48.8673
1332048871862,48.8121
1332048931862,48.7446
1332048991862,48.7840
1332049051862,48.7404
1332049111862,48.7456
1332049171862,48.8173
1332049231862,48.7852
1332049291862,48.8641
1332049351862,48.7264
1332049411862,48.7763
1332049471862,48.7157
1332049531862,48.8811
1332049591862,48.8698
1332049651862,48.8422
1332049711862,48.7318
1332049771862,48.9034
1332049831862,48.6448
1332049891862,48.6502
1332049951862,48.6573
1332050011862,48.6423
1332050071862,48.8453
1332050131862,48.8816
1332050191862,48.9054
1332050251862,48.6981
1332050311862,48.8965
1332050371862,48.9601
1332050431873,48.8382
1332050491873,48.5697
1332050551873,48.8403
1332050611873,48.8663
1332050671873,48.7954
1332050731873,48.7503
1332050791873,48.7812
1332050851873,48.8095
1332050911873,48.6858
1332050971873,48.7225
1332051031873,48.8030
1332051091873,48.6651
1332051151873,48.7453
1332051211873,48.7064
1332051271873,48.5628
1332051331873,48.7734
1332051391873,48.6349
1332051451873,48.5820
1332051511873,48.4908
1332051571873,48.1736
1332064831925,48.3765
1332064891925,48.3956
1332064951925,48.2642
1332065011925,48.2791
1332065071925,48.3463
1332065131925,48.4217
1332065191925,48.1690
1332065251925,48.4360
1332065311925,48.3830
1332065371925,48.2007
1332065431925,48.1992
1332065491925,48.2462
1332065551925,48.1976
1332065611925,48.2916
1332065671925,48.1370
1332065731925,48.1949
1332065791925,48.2138
1332065851925,48.2650
1332065911925,48.1809
1332065971925,48.1327
1332066031925,48.1515
1332066091925,48.2072
1332066151925,48.1955
1332066211925,48.2813
1332066271925,48.2741
1332066331925,48.2738
1332066391925,48.1124
1332066451925,48.1288
1332066511925,48.2000
1332066571925,48.1196
1332066631925,48.1107
1332066691925,48.1098
1332066751925,48.1188
1332066811925,48.1559
1332066871925,48.1565
1332066931925,48.1991
1332066991925,48.0631
1332067051925,48.0686
1332067111925,48.1098
1332067171925,48.2797
1332067231925,48.0877
1332067291925,48.1752
1332067351925,48.0774
1332067411925,48.0845
1332067471925,48.1877
1332067531925,48.1803
1332067591925,48.0123
1332067651925,48.1590
1332067711925,48.4127
1332067771925,48.2262
1332067831925,48.1188
1332067891925,48.2101
1332067951925,48.1089
1332068011925,48.1256
1332068071925,48.1149
1332068131925,48.3600
1332068191925,48.1306
1332068251925,47.9902
1332068311925,48.2362
1332068371925,48.1481
1332068431937,48.3491
1332068491937,48.0904
1332068551937,48.2705
1332068611937,48.2342
1332068671937,48.2131
1332068731937,48.2679
1332068791937,48.1613
1332068851937,48.1906
1332068911937,48.1357
1332068971937,48.2426
1332069031937,48.2053
1332069091937,48.3100
1332069151937,48.2633
1332069211937,48.1689
1332069271937,48.0933
1332069331937,48.1728
1332069391937,48.2065
1332069451937,48.2282
1332069511937,48.1425
1332069571937,48.0272
1332069631937,48.1285
1332069691937,47.9053
1332069751937,48.0570
1332069811937,48.1378
1332069871937,47.9266
1332069931937,48.0244
1332069991937,47.9045
1332070051937,48.1103
1332070111937,48.0007
1332070171937,47.9772
1332070231937,48.0471
1332070291937,47.9263
1332070351937,47.9889
1332070411937,47.9269
1332070471937,47.9241
1332070531937,48.0095
1332070591937,48.1612
1332070651937,48.0832
1332070711937,47.9145
1332070771937,48.0343
1332070831937,48.0716
1332070891937,47.8229
1332070951937,47.9557
1332071011937,47.8760
1332071071937,47.9376
1332071131937,47.8864
1332071191937,47.9275
1332071251937,47.9139
1332071311937,47.8621
1332071371937,47.9248
1332071431937,47.9076
1332071491937,47.9023
1332071551937,47.9781
1332071611937,47.8276
1332071671937,47.9973
1332071731937,47.9782
1332071791937,47.8922
1332071851937,47.9209
1332071911937,47.8477
1332071971937,47.8983
1332072031949,47.9218
1332072091949,47.9349
1332072151949,47.8919
1332072211949,47.8466
1332072271949,48.0622
1332072331949,47.8954
1332072391949,47.9623
1332072451949,47.9947
1332072511949,47.9693
1332072571949,47.9077
1332072631949,47.9262
1332072691949,47.9023
1332072751949,48.0481
1332072811949,47.9026
1332072871949,48.0249
1332072931949,47.9417
1332072991949,47.9641
1332073051949,47.9955
1332073111949,48.0567
1332073171949,48.0400
1332073231949,48.1049
1332073291949,48.1043
1332073351949,48.1696
1332073411949,48.1430
1332073471949,48.1291
1332073531949,48.0816
1332073591949,48.2304
1332073651949,48.2249
1332073711949,48.1199
1332073771949,48.2789
1332073831949,48.2030
1332073891949,48.1896
1332073951949,48.2306
1332074011949,48.2479
1332074071949,48.1081
1332074131949,48.1225
1332074191949,48.0446
1332074251949,48.2827
1332074311949,48.0953
1332074371949,48.0849
1332074431949,48.0660
1332074491949,48.1276
1332074551949,48.0727
1332074611949,48.0639
1332074671949,48.0823
1332074731949,48.0973
1332074791949,48.0648
1332074851949,48.0061
1332074911949,47.9744
1332074971949,47.9810
1332075031949,48.0056
1332075091949,48.0083
1332075151949,48.1284
1332075211949,48.0459
1332075271949,48.0394
1332075331949,47.9960
1332075391949,48.0331
1332075451949,48.1026
1332075511949,47.8514
1332075571949,47.9446
1332075631961,48.0341
1332075691961,47.9877
1332075751961,48.0191
1332075811961,47.9354
1332075871961,47.8772
1332075931961,47.9572
1332075991961,47.9166
1332076051961,47.9496
1332076111961,48.1095
1332076171961,48.0210
1332076231961,48.1417
1332076291961,47.9823
1332076351961,47.8807
1332076411961,47.9873
1332076471961,47.9709
1332076531961,48.0520
1332076591961,48.0138
1332076651961,47.9608
1332076711961,47.7948
1332076771961,48.1354
1332076831961,48.0794
1332076891961,48.1340
1332076951961,47.9357
1332077011961,48.1472
1332078151961,48.0796
1332078211961,44.3874
1332078271961,48.1668
1332078331961,48.0919
1332078391961,48.1552
1332078451961,48.1118
1332078511961,48.1217
1332078571961,48.1078
1332078631961,48.0048
1332078691961,48.0259
1332078751961,48.0708
1332078811961,48.0209
1332078871961,48.1746
1332078931961,48.1410
1332078991961,48.0865
1332079051961,47.9517
1332079111961,48.0426
1332079171961,48.1160
1332079231973,48.0599
1332079291973,47.9707
1332079351973,48.1371
1332079411973,48.0388
1332079471973,48.0370
1332079531973,48.0652
1332079591973,48.2638
1332079651973,48.0822
1332079711973,48.1698
1332079771973,48.0807
1332079831973,48.0327
1332079891973,48.1523
1332079951973,48.1727
1332080011973,48.0653
1332080071973,48.0479
1332080131973,48.0340
1332080191973,48.1518
1332080251973,48.2319
1332080311973,48.1117
1332080371973,47.9243
1332080431973,48.1218
1332080491973,48.1506
1332080551973,48.1250
1332080611973,48.2227
1332080671973,48.0833
1332080731973,48.0295
1332080791973,48.0842
1332080851973,48.0987
1332080911973,48.0742
1332080971973,47.9175
1332081031973,48.0799
1332081091973,48.0228
1332081151973,48.1536
1332081211973,48.1953
1332081271973,48.1119
1332081331973,48.1304
1332081391973,48.0363
1332081451973,48.0105
1332081511973,48.0608
1332081571973,48.1079
1332081631973,48.0869
1332081691973,48.0126
1332081751973,47.9899
1332081811973,47.9476
1332081871973,47.9325
1332081931973,47.9387
1332081991973,48.0256
1332082051973,48.0394
1332082111973,48.0453
1332082171973,47.9950
1332082231973,48.0371
1332082291973,47.9924
1332082351973,48.0581
1332082411973,48.0759
1332082471973,48.0537
1332082531973,48.1733
1332082591973,48.2010
1332082651973,48.1297
1332082711973,48.0934
1332082771973,48.0080
1332082831985,48.1105
1332082891985,48.1725
1332082951985,48.0889
1332083011985,48.0985
1332083071985,48.0115
1332083131985,47.9545
1332083191985,47.9127
1332083251985,48.1811
1332083311985,48.0337
1332083371985,47.9897
1332083431985,47.9784
1332083491985,48.1431
1332083551985,48.0612
1332083611985,48.0434
1332083671985,47.9322
1332083731985,48.0107
1332083791985,47.9942
1332083851985,47.9739
1332083911985,48.1513
1332083971985,48.0756
1332084031985,48.1066
1332084091985,47.9800
1332084151985,48.0988
1332084211985,48.0485
1332084271985,47.8777
1332084331985,48.0023
1332084391985,48.0435
1332084451985,48.1266
1332084511985,48.0750
1332084571985,47.9272
1332084631985,47.9384
1332084691985,47.9456
1332084751985,47.9504
1332084811985,48.0880
1332084871985,48.0445
1332084931985,47.8976
1332084991985,48.0879
1332085051985,48.1690
1332085111985,47.9300
1332085171985,47.6360
1332085231985,47.8430
1332085291985,47.8936
1332085351985,47.9461
1332085411985,48.0308
1332085471985,48.0122
1332085531985,47.9161
1332085591985,47.9614
1332085651985,47.9614
1332085711985,48.1510
1332085771985,48.0473
1332085831985,48.0285
1332085891985,47.9536
1332085951985,48.0827
1332086011985,48.1015
1332086071985,48.0215
1332086131985,48.0558
1332086191985,48.0330
1332086251985,47.9817
1332086311985,48.0270
1332086371985,47.9746
1332086431997,48.0953
1332086491997,48.0741
1332086551997,48.1327
1332086611997,47.9623
1332086671997,47.9637
1332086731997,48.1231
1332086791997,48.0646
1332086851997,48.1254
1332086911997,48.1221
1332086971997,48.3424
1332087031997,48.0985
1332087091997,48.1836
1332087151997,47.9938
1332087211997,48.0102
1332087271997,47.9930
1332087331997,48.0774
1332087391997,48.2472
1332087451997,48.1927
1332087511997,48.1569
1332087571997,48.0713
1332087631997,48.0999
1332087691997,48.1780
1332087751997,48.4201
1332087811997,48.2689
1332087871997,48.1936
1332087931997,48.2040
1332087991997,48.2802
1332088051997,48.1624
1332088111997,48.2318
1332088171997,48.2080
1332088231997,48.1310
1332088291997,48.2877
1332088351997,48.1558
1332088411997,48.2628
1332088471997,48.3612
1332088531997,48.2391
1332088591997,48.2805
1332088651997,48.3292
1332088711997,48.4606
1332088771997,48.1669
1332088831997,48.2791
1332088891997,48.4186
1332088951997,48.2853
1332089011997,48.3020
1332089071997,48.3587
1332089131997,48.3208
1332089191997,48.2317
1332089251997,48.3909
1332089311997,48.1753
1332089371997,48.4182
1332089431997,48.4973
1332089491997,48.3379
1332089551997,48.2952
1332089611997,48.4198
1332089671997,48.4608
1332089731997,48.3442
1332089791997,48.4209
1332089851997,48.3022
1332089911997,48.2896
1332089971997,48.3175
1332090032008,48.4390
1332090092008,48.1891
1332090152008,48.3223
1332090212008,48.3220
1332090272008,48.4462
1332090332008,48.3551
1332090392008,48.3446
1332090452008,48.2456
1332090512008,48.4737
1332090572008,48.4399
1332090632008,48.3047
1332090692008,48.2438
1332090752008,48.2951
1332090812008,48.2418
1332090872008,48.2957
1332090932008,48.4116
1332090992008,48.4134
1332091052008,48.2125
1332091112008,48.3087
1332091172008,48.4879
1332091232008,48.5519
1332091292008,48.2505
1332091352008,48.3659
1332091412008,48.4510
1332091472008,48.4266
1332091532008,48.4606
1332091592008,48.2525
1332091652008,48.4928
1332091712008,48.5297
1332091772008,48.5381
1332091832008,48.7115
1332091892008,48.5458
1332091952008,48.4820
1332092012008,48.4903
1332092072008,48.5562
1332092132008,48.4011
1332092192008,48.5228
1332092252008,48.5931
1332092312008,48.5223
1332092372008,48.4993
1332092432008,48.5296
1332092492008,48.4559
1332092552008,48.5403
1332092612008,48.5835
1332092672008,48.5385
1332092732008,48.4305
1332092792008,48.6824
1332092852008,48.4431
1332092912008,48.6528
1332092972008,48.5777
1332093032008,48.5327
1332093092008,48.5952
1332093152008,48.5674
1332093212008,48.7151
1332093272008,48.5025
1332093332008,48.5848
1332093392008,48.4530
1332093452008,48.5265
1332093512008,48.5955
1332093572008,48.4782
1332093632020,48.4808
1332093692020,48.5482
1332093752020,48.6202
1332093812020,48.5312
1332093872020,48.6633
1332093932020,48.5808
1332093992020,48.4714
1332094052020,48.6656
1332094112020,48.7152
1332094172020,48.4985
1332094232020,48.6670
1332094292020,48.7272
1332094352020,48.7496
1332094412020,48.5685
1332094472020,48.4605
1332094532020,48.5453
1332094592020,48.6855
1332094652020,48.5377
1332094712020,48.6475
1332094772020,48.6487
1332094832020,48.6359
1332094892020,48.5632
1332094952020,48.7375
1332095012020,48.6657
1332095072020,48.6628
1332095132020,48.7919
1332095192020,48.5271
1332095252020,48.6347
1332095312020,48.7348
1332095372020,48.7772
1332095432020,48.8583
1332095492020,48.8402
1332095552020,48.6278
1332095612020,48.7033
1332095672020,48.7654
1332095732020,48.7609
1332095792020,48.6634
1332095852020,48.7541
1332095912020,48.6393
1332095972020,48.7521
1332096032020,48.7127
1332096092020,48.8257
1332096152020,48.7418
1332096212020,48.7195
1332096272020,48.7878
1332096332020,48.7576
1332096392020,48.8955
1332096452020,48.7821
1332096512020,48.6889
1332096572020,48.6565
1332096632020,48.8780
1332096692020,48.6952
1332096752020,48.8190
1332096812020,48.8481
1332096872020,48.8200
1332096932020,48.8494
1332096992020,48.8628
1332097052020,48.8528
1332097112020,48.8445
1332097172020,48.6974
1332097232032,48.7163
1332097292032,48.6711
1332097352032,48.8605
1332097412032,48.6229
1332097472032,48.9085
1332097532032,48.8051
1332097592032,48.7266
1332097652032,48.7887
1332097712032,48.9577
1332097772032,48.6673
1332097832032,48.6656
1332097892032,48.8069
1332097952032,48.6006
1332098012032,48.7767
1332098072032,48.6833
1332098132032,48.6889
1332098192032,48.7959
1332098252032,48.8040
1332098312032,48.6922
1332098372032,48.7819
1332098432032,48.8052
1332098492032,48.8288
1332098552032,48.9385
1332098612032,48.6690
1332098672032,48.7100
1332098732032,48.7723
1332098792032,48.7532
1332098852032,48.6883
1332098912032,48.9477
1332098972032,48.5874
1332099032032,48.9445
1332099092032,48.7678
1332099152032,48.8759
1332099212032,48.8538
1332099272032,49.1373
1332099332032,48.8844
1332099392032,48.8911
1332099452032,48.8965
1332099512032,48.9010
1332099572032,48.9055
1332099632032,49.0283
1332099692032,48.9877
1332099752032,48.9348
1332099812032,48.8394
1332099872032,48.9408
1332099932032,48.8755
1332099992032,48.9103
1332100052032,48.8539
1332100112032,48.9574
1332100172032,48.9446
1332100232032,49.2584
1332100292032,48.9090
1332100352032,48.8820
1332100412032,48.8600
1332100472032,49.0483
1332100532032,49.0209
1332100592032,48.9958
1332100652032,48.8358
1332100712032,48.7722
1332100772032,49.0095
1332100832043,49.0329
1332100892043,48.9837
1332100952043,49.0357
1332101012043,48.8183
1332101072043,49.0559
1332101132043,48.8773
1332101192043,48.9235
1332101252043,48.9582
1332101312043,48.9434
1332101372043,48.8833
1332101432043,48.9061
1332101492043,48.9108
1332101552043,48.8678
1332101612043,48.9562
1332101672043,48.9165
1332101732043,48.8281
1332101792043,48.8043
1332101852043,48.8965
1332101912043,48.8069
1332101972043,48.7765
1332102032043,48.9799
1332102092043,48.9799
1332102152043,48.8887
1332102212043,48.7871
1332102272043,48.8660
1332102332043,48.9618
1332102392043,48.8590
1332102452043,48.9650
1332102512043,48.9411
1332102572043,48.8585
1332102632043,48.9579
1332102692043,48.8570
1332102752043,48.9237
1332102812043,49.0861
1332102872043,48.9164
1332102932043,48.8040
1332102992043,48.9351
1332103052043,48.9114
1332103112043,48.9444
1332103172043,48.8552
1332103232043,48.9298
1332103292043,48.8972
1332103352043,48.7095
1332103412043,49.0456
1332103472043,48.9781
1332103532043,48.9902
1332103592043,48.9750
1332103652043,48.7584
1332103712043,48.8694
1332103772043,48.8548
1332103832043,48.9833
1332103892043,48.9139
1332103952043,48.6396
1332104012043,49.0202
1332104072043,48.8577
1332104132043,48.9965
1332104192043,48.9362
1332104252043,48.7952
1332104312043,48.8603
1332104372043,48.7063
1332104432055,48.8760
1332104492055,48.7948
1332104552055,48.8267
1332104612055,48.8695
1332104672055,48.9386
1332104732055,48.6824
1332104792055,48.9846
1332104852055,48.8197
1332104912055,48.9223
1332104972055,49.0131
1332105032055,48.8865
1332105092055,48.8287
1332105152055,48.8183
1332105212055,48.8791
1332105272055,48.8533
1332105332055,48.9135
1332105392055,48.8981
1332105452055,48.7530
1332105512055,48.7632
1332105572055,48.9168
1332105632055,48.7185
1332105692055,48.7999
1332105752055,48.6881
1332105812055,48.7359
1332105872055,48.8943
1332105932055,48.8010
1332105992055,48.7485
1332106052055,49.0331
1332106112055,48.7897
1332106172055,48.7607
1332106232055,48.7141
1332106292055,48.8657
1332106352055,48.8503
1332106412055,48.7771
1332106472055,48.7647
1332106532055,48.8132
1332106592055,48.7575
1332106652055,48.7595
1332106712055,48.7466
1332106772055,48.8177
1332106832055,48.8236
1332106892055,48.7981
1332106952055,48.8590
1332107012055,48.8521
1332107072055,48.7923
1332107132055,48.8678
1332107192055,48.6480
1332107252055,48.7442
1332107312055,48.7790
1332107372055,48.7469
1332107432055,48.8952
1332107492055,48.7203
1332107552055,48.7394
1332107612055,48.8534
1332107672055,48.9252
1332107732055,48.6591
1332107792055,48.5766
1332107852055,48.8078
1332107912055,48.7621
1332107972055,48.7666
1332108032067,48.7675
1332108092067,48.8625
1332108152067,48.7375
1332108212067,48.8040
1332108272067,48.7671
1332108332067,48.7475
1332108392067,48.8426
1332108452067,48.7635